This is the latest recevied weather packets stored in our database for station/object EA1EXV-11. If no packets are shown the sender has not sent any weather packets the latest 10 day(s).
| Time | Temp. | Humidity | Pressure | Rain* | Wind** | Luminosity | Snow |
|---|---|---|---|---|---|---|---|
| 1778286053 | 10° C | 77% | 1008.7 hPa | - | - | - | - |
| 1778285153 | 10.56° C | 77% | 1008.7 hPa | - | - | - | - |
| 1778284253 | 10° C | 77% | 1008.8 hPa | - | - | - | - |
| 1778283353 | 10° C | 77% | 1008.8 hPa | - | - | - | - |
| 1778282453 | 10° C | 76% | 1008.9 hPa | - | - | - | - |
| 1778281552 | 10° C | 76% | 1009.3 hPa | - | - | - | - |
| 1778280652 | 10° C | 76% | 1009.6 hPa | - | - | - | - |
| 1778279752 | 10° C | 75% | 1009.7 hPa | - | - | - | - |
| 1778278852 | 10° C | 75% | 1009.9 hPa | - | - | - | - |
| 1778277952 | 10° C | 74% | 1010 hPa | - | - | - | - |
| 1778277052 | 10° C | 73% | 1010.2 hPa | - | - | - | - |
| 1778276152 | 10.56° C | 73% | 1010.4 hPa | - | - | - | - |
| 1778275252 | 10.56° C | 72% | 1010.5 hPa | - | - | - | - |
| 1778274352 | 10.56° C | 71% | 1010.5 hPa | - | - | - | - |
| 1778273452 | 11.11° C | 70% | 1010.5 hPa | - | - | - | - |
| 1778272551 | 11.11° C | 69% | 1010.4 hPa | - | - | - | - |
| 1778271651 | 11.67° C | 69% | 1010.3 hPa | - | - | - | - |
| 1778270751 | 12.22° C | 68% | 1010.3 hPa | - | - | - | - |
| 1778269851 | 12.78° C | 67% | 1010.3 hPa | - | - | - | - |
| 1778268951 | 13.89° C | 65% | 1010.4 hPa | - | - | - | - |
| 1778268051 | 14.44° C | 64% | 1010.3 hPa | - | - | - | - |
| 1778267151 | 15° C | 62% | 1010.3 hPa | - | - | - | - |
| 1778266251 | 16.11° C | 60% | 1010.2 hPa | - | - | - | - |
| 1778265349 | 16.67° C | 58% | 1010 hPa | - | - | - | - |
| 1778264449 | 17.22° C | 56% | 1009.9 hPa | - | - | - | - |
* Rain since midnight (hover to see other rain measurements)
** Current wind speed in m/s (hover to see current wind gust speed)